FW2420 Weather Reports


time (UTC)temp
C
wind
direction
speed
KPH
gust
KPH
rain 1hr
cm
rain 24hr
cm
rain mn
cm
humidity
%
barometer
mb
20260906204536 32 360 30.6 49.9 0.00 0.00 0.00 41 1006.1
20260906203035 32 360 32.2 45.1 0.00 0.00 0.00 41 1006.4
20260906201545 32 360 29.0 41.8 0.00 0.00 0.00 43 1006.6
20260906200001 32 360 32.2 46.7 0.00 0.00 0.00 44 1006.9
20260906194611 31 360 24.1 51.5 0.00 0.00 0.00 45 1007.0
20260906193056 31 360 29.0 45.1 0.00 0.00 0.00 46 1007.2
20260906191554 31 360 30.6 43.5 0.00 0.00 0.00 46 1007.2
20260906190137 31 360 32.2 46.7 0.00 0.00 0.00 46 1007.5
20260906184552 31 360 29.0 38.6 0.00 0.00 0.00 46 1007.6
20260906183030 31 360 22.5 40.2 0.00 0.00 0.00 49 1007.7
20260906181521 30 360 25.7 43.5 0.00 0.00 0.00 49 1008.0
20260906180012 30 360 22.5 35.4 0.00 0.00 0.00 49 1008.1
20260906174509 30 360 22.5 40.2 0.00 0.00 0.00 49 1008.3
20260906173007 30 360 22.5 32.2 0.00 0.00 0.00 50 1008.4
20260906171504 29 360 20.9 37.0 0.00 0.00 0.00 53 1008.5
20260906170032 28 360 27.4 37.0 0.00 0.00 0.00 54 1008.6
20260906164528 27 360 24.1 32.2 0.00 0.00 0.00 57 1008.6
20260906163057 27 360 24.1 33.8 0.00 0.00 0.00 57 1008.8
20260906161553 27 360 19.3 35.4 0.00 0.00 0.00 57 1008.8
20260906160050 27 360 20.9 35.4 0.00 0.00 0.00 59 1008.6
20260906154545 26 360 17.7 29.0 0.00 0.00 0.00 62 1008.6
20260906153043 26 360 19.3 27.4 0.00 0.00 0.00 63 1008.7
20260906151539 25 360 16.1 29.0 0.00 0.00 0.00 65 1008.5
20260906150036 24 360 11.3 27.4 0.00 0.00 0.00 68 1008.6
20260906144530 23 360 6.4 17.7 0.00 0.00 0.00 70 1008.7
20260906143025 22 360 3.2 12.9 0.00 0.00 0.00 77 1008.8
20260906141525 21 360 3.2 8.0 0.00 0.00 0.00 81 1008.8
20260906140039 20 360 3.2 12.9 0.00 0.00 0.00 84 1009.0
20260906134519 20 360 3.2 14.5 0.00 0.00 0.00 84 1008.7
20260906133017 20 360 6.4 17.7 0.00 0.00 0.00 85 1008.6
20260906131516 19 360 0.0 3.2 0.00 0.00 0.00 88 1008.5
20260906130013 18 360 0.0 0.0 0.00 0.00 0.00 89 1008.4
20260906124511 18 360 0.0 4.8 0.00 0.00 0.00 89 1008.4
20260906123014 18 360 0.0 0.0 0.00 0.00 0.00 87 1008.2
20260906121509 18 360 0.0 3.2 0.00 0.00 0.00 87 1008.2
20260906120108 18 360 0.0 4.8 0.00 0.00 0.00 87 1008.1
20260906114537 18 96 0.0 1.6 0.00 0.00 0.00 86 1008.2
20260906113041 18 103 1.6 4.8 0.00 0.00 0.00 85 1008.1
20260906111530 18 360 0.0 0.0 0.00 0.00 0.00 84 1008.0
20260906110028 18 360 0.0 0.0 0.00 0.00 0.00 83 1007.9
20260906104531 18 85 0.0 0.0 0.00 0.00 0.00 81 1007.9
20260906103024 19 85 0.0 0.0 0.00 0.00 0.00 80 1007.9
20260906101521 19 81 1.6 6.4 0.00 0.00 0.00 79 1007.8
20260906100019 19 360 1.6 4.8 0.00 0.00 0.00 76 1007.5
20260906094513 20 360 1.6 6.4 0.00 0.00 0.00 71 1006.9
20260906093033 21 360 0.0 0.0 0.00 0.00 0.00 71 1006.7
20260906091509 21 360 0.0 0.0 0.00 0.00 0.00 70 1006.7
20260906090013 21 360 0.0 1.6 0.00 0.00 0.00 69 1006.7
20260906084511 21 360 0.0 4.8 0.00 0.00 0.00 69 1006.7
20260906083011 21 360 1.6 4.8 0.00 0.00 0.00 70 1006.9
20260906081504 21 360 0.0 4.8 0.00 0.00 0.00 72 1007.1
20260906080003 21 360 0.0 1.6 0.00 0.00 0.00 71 1007.1
20260906074506 21 360 0.0 4.8 0.00 0.00 0.00 72 1007.0
20260906073101 21 360 0.0 6.4 0.00 0.00 0.00 72 1006.8
20260906073002 21 360 0.0 6.4 0.00 0.00 0.00 72 1006.8
20260906071558 21 360 3.2 4.8 0.00 0.00 0.00 72 1006.5
20260906070056 21 360 0.0 0.0 0.00 0.00 0.00 73 1006.5
20260906064555 21 360 0.0 1.6 0.00 0.00 0.00 73 1006.5
20260906063055 21 360 3.2 8.0 0.00 0.00 0.00 73 1006.5
20260906061521 22 360 3.2 8.0 0.00 0.00 0.00 73 1006.4
20260906060017 22 360 4.8 12.9 0.00 0.00 0.00 73 1006.1
20260906054513 22 360 9.7 16.1 0.00 0.00 0.00 72 1006.1
20260906053018 23 360 1.6 6.4 0.00 0.00 0.00 71 1006.2
20260906051511 23 360 4.8 17.7 0.00 0.00 0.00 71 1006.2
20260906050010 23 360 4.8 12.9 0.00 0.00 0.00 70 1006.2
20260906044508 23 360 0.0 4.8 0.00 0.00 0.00 68 1006.3
20260906043009 24 360 1.6 4.8 0.00 0.00 0.00 65 1006.3
20260906041510 25 360 1.6 4.8 0.00 0.00 0.00 64 1006.8
20260906040007 25 360 1.6 4.8 0.00 0.00 0.00 62 1006.4
20260906034511 26 360 3.2 19.3 0.00 0.00 0.00 61 1006.7
20260906033004 26 360 9.7 24.1 0.00 0.00 0.00 60 1006.6
20260906031503 26 360 8.0 17.7 0.00 0.00 0.00 60 1006.4
20260906030003 26 360 4.8 16.1 0.00 0.00 0.00 60 1006.0
20260906024623 26 360 3.2 12.9 0.00 0.00 0.00 58 1005.7
20260906024500 26 360 3.2 12.9 0.00 0.00 0.00 58 1005.7
20260906023106 27 360 6.4 14.5 0.00 0.00 0.00 57 1005.8
20260906021559 27 360 4.8 16.1 0.00 0.00 0.00 56 1005.5
20260906020105 27 360 12.9 20.9 0.00 0.00 0.00 56 1005.4
20260906014556 28 360 12.9 20.9 0.00 0.00 0.00 55 1005.5
20260906013055 28 360 9.7 22.5 0.00 0.00 0.00 54 1005.2
20260906011600 29 360 11.3 30.6 0.00 0.00 0.00 53 1004.8
20260906010126 29 360 20.9 33.8 0.00 0.00 0.00 51 1004.9
20260906004551 30 360 20.9 35.4 0.00 0.00 0.00 48 1004.8
20260906003049 30 360 12.9 27.4 0.00 0.00 0.00 46 1004.6
20260906001602 31 360 20.9 30.6 0.00 0.00 0.00 43 1004.3
20260906000048 31 360 25.7 35.4 0.00 0.00 0.00 41 1004.1
20260905234546 32 360 20.9 35.4 0.00 0.00 0.00 42 1004.2
20260905233045 32 360 25.7 35.4 0.00 0.00 0.00 42 1004.1
20260905231546 33 360 27.4 40.2 0.00 0.00 0.00 42 1004.1
20260905230049 33 360 27.4 40.2 0.00 0.00 0.00 40 1004.0
20260905224546 33 360 24.1 35.4 0.00 0.00 0.00 41 1003.8
20260905223043 33 360 20.9 37.0 0.00 0.00 0.00 42 1003.8
20260905221550 33 360 24.1 38.6 0.00 0.00 0.00 41 1003.8
20260905220039 33 360 20.9 32.2 0.00 0.00 0.00 41 1003.7
20260905214537 34 360 20.9 33.8 0.00 0.00 0.00 40 1003.9
20260905213040 35 360 17.7 37.0 0.00 0.00 0.00 37 1004.0
20260905211541 34 360 16.1 24.1 0.00 0.00 0.00 36 1004.1
20260905210033 34 360 17.7 29.0 0.00 0.00 0.00 38 1004.2